Amateur Radio Satellites - All Passes

Search period start: 21 May 2013 21:05
Search period end: 22 May 2013 21:05
Location: Terra Rouge Observatory, 46.0000°N, 62.7500°W

Satellite Date Start Highest point End Downlink Frequencies (MHz)
Time Altitude Azimuth
JAS-1B 21 May 21:07:17 21:15:52 42° 263° (W) 21:23:21 435.800 - 435.900 CW/SSB
OPAL 21 May 21:11:34 21:15:17 20° 57° (ENE) 21:18:58 ?
SO-67 21 May 21:22:43 21:23:56 11° 271° (W) 21:25:09 435.3500 MHz FM
RS-15 21 May 21:29:12 21:39:04 30° 352° (N) 21:48:35 29.354 - 29.394 USB, Beacon 29.352 USB
JAS-2 21 May 21:38:18 21:45:56 65° 70° (ENE) 21:53:41 435.800 - 435.900 CW/SSB, 435.910 FM
Oscar 11 21 May 21:46:48 21:51:00 53° 72° (ENE) 21:55:14 145.825 FM, Beacon 2401.500 USB
UOSAT-12 21 May 22:13:32 22:16:45 19° 248° (WSW) 22:19:59 437.025 FM, 437.400 FM
HO-68 21 May 22:26:47 22:33:36 47° 260° (W) 22:40:28 435.675 MHz FM
OPAL 21 May 22:48:32 22:53:42 67° 255° (WSW) 22:58:51 ?
KITSAT 1 21 May 22:53:24 23:00:18 33° 108° (ESE) 23:07:14 435.175 FM
JAS-2 21 May 23:24:41 23:31:22 31° 269° (W) 23:38:11 435.800 - 435.900 CW/SSB, 435.910 FM
Oscar 11 21 May 23:24:50 23:27:34 16° 269° (W) 23:30:18 145.825 FM, Beacon 2401.500 USB
RS-15 21 May 23:45:12 23:55:34 38° 26° (NNE) 00:05:34 29.354 - 29.394 USB, Beacon 29.352 USB
KITSAT 1 22 May 00:47:09 00:55:10 67° 309° (NW) 01:03:17 435.175 FM
MaSat-1 22 May 01:57:07 02:03:29 38° 110° (ESE) 02:08:52 437.345 MHz
RS-15 22 May 01:58:17 02:09:33 89° 55° (NE) 02:20:27 29.354 - 29.394 USB, Beacon 29.352 USB
Uribyol 2 22 May 02:08:09 02:11:49 19° 91° (E) 02:15:29 436.500 FM
Oscar 19 22 May 02:13:08 02:17:17 24° 93° (E) 02:21:23 437.125 CW, 437.150 USB
Oscar 10/S400 22 May 02:34:33 05:12:58 17° 78° (ENE) 06:51:12 145.825 - 145.975 CW/USB, Beacon 145.810 USB
KITSAT 1 22 May 02:45:48 02:52:14 25° 334° (NNW) 02:58:42 435.175 FM
Oscar 16 22 May 02:51:41 02:56:50 60° 101° (E) 03:01:55 437.025 USB, Beacon 2401.1428
AO-27 22 May 02:58:21 03:03:27 51° 100° (E) 03:08:31 436.795 MHz FM
ITAMSAT 1 22 May 03:05:13 03:10:23 57° 101° (E) 03:15:31 435.822 SSB
Gurwin Techsat 1B 22 May 03:20:21 03:21:21 11° 85° (E) 03:22:22 435.225 FM
ISS 22 May 03:34:43 03:37:41 31° 141° (SE) 03:40:41 145.800 FM
MaSat-1 22 May 03:39:04 03:45:39 47° 304° (NW) 03:51:00 437.345 MHz
Uribyol 2 22 May 03:46:34 03:51:45 62° 289° (WNW) 03:56:54 436.500 FM
Oscar 19 22 May 03:51:55 03:56:54 49° 291° (WNW) 04:01:50 437.125 CW, 437.150 USB
Uosat F 22 May 03:55:14 03:59:27 26° 94° (E) 04:03:38 435.120 FM
AO-40 22 May 03:56:40 05:07:38 19° 245° (WSW) 07:20:19 Beacon 2401.320
AO-Echo 22 May 04:02:50 04:07:34 70° 102° (ESE) 04:12:22 ?
RS-15 22 May 04:12:01 04:20:21 26° 258° (WSW) 04:28:37 29.354 - 29.394 USB, Beacon 29.352 USB
Oscar 16 22 May 04:31:57 04:35:46 21° 300° (WNW) 04:39:34 437.025 USB, Beacon 2401.1428
TMSAT-1 22 May 04:35:50 04:40:43 35° 96° (E) 04:45:33 436.925 FM
AO-27 22 May 04:38:30 04:42:41 25° 298° (WNW) 04:46:51 436.795 MHz FM
ITAMSAT 1 22 May 04:45:32 04:49:31 23° 299° (WNW) 04:53:29 435.822 SSB
KITSAT 1 22 May 04:45:44 04:51:00 18° 4° (N) 04:56:16 435.175 FM
Gurwin Techsat 1B 22 May 04:56:52 05:02:13 78° 103° (ESE) 05:07:32 435.225 FM
ISS 22 May 05:11:02 05:14:18 52° 339° (NNW) 05:17:35 145.800 FM
AO-7 22 May 05:14:00 05:21:07 30° 94° (E) 05:28:12 29.400 - 29.500 MHz
MaSat-1 22 May 05:26:45 05:28:52 12° 322° (NW) 05:30:51 437.345 MHz
Uribyol 2 22 May 05:29:21 05:30:13 10° 308° (NW) 05:31:05 436.500 FM
Uosat F 22 May 05:33:41 05:38:24 42° 292° (WNW) 05:43:08 435.120 FM
AO-Echo 22 May 05:43:00 05:45:52 16° 300° (WNW) 05:48:46 ?
STRAND 1 22 May 06:00:35 06:05:20 42° 68° (ENE) 06:10:07 ?
TMSAT-1 22 May 06:15:51 06:20:37 35° 294° (WNW) 06:25:22 436.925 FM
Saudisat 1A 22 May 06:21:39 06:26:02 48° 120° (ESE) 06:30:29 436.775 MHz
Gurwin Techsat 1B 22 May 06:38:10 06:41:35 18° 302° (WNW) 06:44:59 435.225 FM
KITSAT 1 22 May 06:42:21 06:49:27 31° 34° (NNE) 06:56:31 435.175 FM
ISS 22 May 06:48:29 06:51:29 29° 359° (N) 06:54:29 145.800 FM
AO-7 22 May 07:06:13 07:14:31 69° 294° (WNW) 07:22:47 29.400 - 29.500 MHz
PCSat 22 May 07:23:36 07:28:05 27° 109° (ESE) 07:32:35 145.825 MHz
Hamsat 22 May 07:36:27 07:40:12 27° 95° (E) 07:43:56 145.90 MHz
STRAND 1 22 May 07:40:23 07:44:41 27° 266° (W) 07:49:01 ?
Sapphire 22 May 07:55:41 08:00:49 47° 115° (ESE) 08:06:00 437.095 MHz 1200 baud AX-25 AFSK
Saudisat 1A 22 May 08:01:56 08:05:57 29° 319° (NW) 08:09:59 436.775 MHz
ISS 22 May 08:25:24 08:28:41 48° 19° (NNE) 08:31:57 145.800 FM
KITSAT 1 22 May 08:37:42 08:45:53 88° 237° (WSW) 08:54:01 435.175 FM
SO-67 22 May 08:44:25 08:47:55 48° 99° (E) 08:51:23 435.3500 MHz FM
JAS-1B 22 May 08:50:31 08:56:35 55° 100° (E) 09:02:08 435.800 - 435.900 CW/SSB
AO-7 22 May 09:00:27 09:05:53 20° 316° (NW) 09:11:18 29.400 - 29.500 MHz
PCSat 22 May 09:05:57 09:11:13 52° 308° (NW) 09:16:33 145.825 MHz
Hamsat 22 May 09:12:25 09:16:17 32° 292° (WNW) 09:20:09 145.90 MHz
SO-50 22 May 09:20:53 09:25:31 51° 120° (ESE) 09:30:06 436.795 FM
Sapphire 22 May 09:39:33 09:44:26 33° 315° (NW) 09:49:20 437.095 MHz 1200 baud AX-25 AFSK
HO-68 22 May 09:51:39 09:57:50 30° 94° (E) 10:03:59 435.675 MHz FM
ISS 22 May 10:02:14 10:05:21 35° 218° (SW) 10:08:27 145.800 FM
SO-67 22 May 10:19:13 10:20:59 13° 296° (WNW) 10:22:46 435.3500 MHz FM
JAS-2 22 May 10:31:33 10:38:16 45° 96° (E) 10:44:11 435.800 - 435.900 CW/SSB, 435.910 FM
KITSAT 1 22 May 10:34:34 10:40:12 21° 258° (WSW) 10:45:49 435.175 FM
MaSat-1 22 May 10:40:39 10:43:05 16° 42° (NE) 10:45:11 437.345 MHz
JAS-1B 22 May 10:41:54 10:46:50 25° 303° (WNW) 10:51:25 435.800 - 435.900 CW/SSB
PCSat 22 May 10:53:05 10:55:58 14° 331° (NNW) 10:58:51 145.825 MHz
OPAL 22 May 10:56:39 11:00:48 25° 96° (E) 11:04:54 ?
SO-50 22 May 11:02:14 11:06:23 29° 320° (NW) 11:10:29 436.795 FM
Oscar 11 22 May 11:08:17 11:12:41 77° 103° (ESE) 11:17:03 145.825 FM, Beacon 2401.500 USB
Sapphire 22 May 11:28:27 11:29:39 11° 339° (NNW) 11:30:50 437.095 MHz 1200 baud AX-25 AFSK
HO-68 22 May 11:38:55 11:45:55 59° 294° (WNW) 11:52:54 435.675 MHz FM
Oscar 10/S400 22 May 11:55:44 13:11:40 13° 282° (WNW) 15:00:35 145.825 - 145.975 CW/USB, Beacon 145.810 USB
JAS-2 22 May 12:16:45 12:23:11 38° 298° (WNW) 12:28:56 435.800 - 435.900 CW/SSB, 435.910 FM
MaSat-1 22 May 12:22:17 12:25:24 33° 251° (WSW) 12:28:00 437.345 MHz
UOSAT-12 22 May 12:25:56 12:30:26 72° 124° (ESE) 12:34:59 437.025 FM, 437.400 FM
Oscar 16 22 May 12:34:18 12:37:38 18° 58° (ENE) 12:40:59 437.025 USB, Beacon 2401.1428
OPAL 22 May 12:35:08 12:39:54 44° 294° (WNW) 12:44:35 ?
AO-27 22 May 12:42:29 12:45:28 16° 57° (ENE) 12:48:27 436.795 MHz FM
Oscar 11 22 May 12:46:17 12:48:19 13° 301° (WNW) 12:50:22 145.825 FM, Beacon 2401.500 USB
ITAMSAT 1 22 May 12:48:54 12:52:11 17° 58° (ENE) 12:55:28 435.822 SSB
Saudisat 1A 22 May 13:07:47 13:10:52 17° 32° (NNE) 13:13:55 436.775 MHz
Uribyol 2 22 May 13:28:16 13:32:58 37° 66° (ENE) 13:37:43 436.500 FM
HO-68 22 May 13:28:42 13:32:12 14° 315° (NW) 13:35:41 435.675 MHz FM
Oscar 19 22 May 13:32:16 13:37:10 44° 68° (ENE) 13:42:06 437.125 CW, 437.150 USB
AO-Echo 22 May 13:42:11 13:45:05 16° 60° (ENE) 13:47:57 ?
UOSAT-12 22 May 14:07:35 14:11:06 22° 324° (NW) 14:14:39 437.025 FM, 437.400 FM
Oscar 16 22 May 14:11:13 14:16:24 76° 257° (WSW) 14:21:39 437.025 USB, Beacon 2401.1428
AO-27 22 May 14:19:07 14:24:18 85° 256° (WSW) 14:29:32 436.795 MHz FM
TMSAT-1 22 May 14:23:39 14:25:21 12° 53° (NE) 14:27:03 436.925 FM
ITAMSAT 1 22 May 14:25:55 14:31:05 77° 256° (WSW) 14:36:19 435.822 SSB
PCSat 22 May 14:26:12 14:28:20 12° 25° (NNE) 14:30:28 145.825 MHz
AO-7 22 May 14:28:27 14:32:28 15° 38° (NE) 14:36:30 29.400 - 29.500 MHz
Gurwin Techsat 1B 22 May 14:42:17 14:46:24 24° 61° (ENE) 14:50:31 435.225 FM
Saudisat 1A 22 May 14:46:43 14:51:19 80° 53° (NE) 14:55:48 436.775 MHz
Sapphire 22 May 14:58:32 15:01:57 17° 32° (NNE) 15:05:22 437.095 MHz 1200 baud AX-25 AFSK
Uribyol 2 22 May 15:07:53 15:12:29 32° 264° (W) 15:17:09 436.500 FM
Uosat F 22 May 15:10:54 15:15:40 47° 69° (ENE) 15:20:28 435.120 FM
Oscar 19 22 May 15:12:21 15:16:42 27° 266° (W) 15:21:05 437.125 CW, 437.150 USB
AO-Echo 22 May 15:18:32 15:23:23 71° 258° (WSW) 15:28:08 ?
TMSAT-1 22 May 15:59:04 16:04:19 69° 72° (ENE) 16:09:36 436.925 FM
AO-27 22 May 16:02:57 16:04:38 11° 274° (W) 16:06:18 436.795 MHz FM
PCSat 22 May 16:08:11 16:13:20 41° 48° (NE) 16:18:26 145.825 MHz
SO-50 22 May 16:10:52 16:14:07 19° 33° (NNE) 16:17:19 436.795 FM
AO-7 22 May 16:15:28 16:23:22 51° 61° (ENE) 16:31:19 29.400 - 29.500 MHz
Gurwin Techsat 1B 22 May 16:20:49 16:26:01 55° 260° (W) 16:31:15 435.225 FM
RS-15 22 May 16:23:47 16:34:55 46° 111° (ESE) 16:45:37 29.354 - 29.394 USB, Beacon 29.352 USB
Saudisat 1A 22 May 16:28:06 16:30:23 14° 251° (WSW) 16:32:38 436.775 MHz
Sapphire 22 May 16:41:03 16:46:29 65° 54° (NE) 16:51:52 437.095 MHz 1200 baud AX-25 AFSK
Uosat F 22 May 16:50:44 16:54:43 24° 267° (W) 16:58:43 435.120 FM
TMSAT-1 22 May 17:41:20 17:44:47 17° 271° (W) 17:48:15 436.925 FM
JAS-1B 22 May 17:49:45 17:54:46 17° 52° (NE) 17:59:22 435.800 - 435.900 CW/SSB
SO-50 22 May 17:50:49 17:55:25 89° 54° (NE) 17:59:54 436.795 FM
PCSat 22 May 17:51:47 17:56:43 36° 248° (WSW) 18:01:37 145.825 MHz
AO-7 22 May 18:08:35 18:16:18 42° 262° (W) 18:24:07 29.400 - 29.500 MHz
STRAND 1 22 May 18:11:12 18:12:37 11° 87° (E) 18:14:02 ?
Sapphire 22 May 18:25:26 18:29:25 21° 253° (WSW) 18:33:24 437.095 MHz 1200 baud AX-25 AFSK
Hamsat 22 May 18:33:16 18:36:49 27° 67° (ENE) 18:40:25 145.90 MHz
RS-15 22 May 18:35:11 18:47:03 64° 314° (NW) 18:58:25 29.354 - 29.394 USB, Beacon 29.352 USB
UOSAT-12 22 May 19:13:47 19:17:29 23° 37° (NE) 19:21:10 437.025 FM, 437.400 FM
SO-67 22 May 19:22:58 19:26:01 27° 69° (ENE) 19:29:05 435.3500 MHz FM
SO-50 22 May 19:33:40 19:35:18 12° 252° (WSW) 19:36:55 436.795 FM
JAS-1B 22 May 19:35:14 19:44:15 67° 70° (ENE) 19:51:53 435.800 - 435.900 CW/SSB
STRAND 1 22 May 19:47:26 19:52:37 83° 104° (ESE) 19:57:46 ?
Hamsat 22 May 20:09:06 20:12:50 30° 265° (W) 20:16:36 145.90 MHz
HO-68 22 May 20:23:14 20:29:19 32° 58° (ENE) 20:35:25 435.675 MHz FM
Oscar 11 22 May 20:34:00 20:34:44 10° 57° (ENE) 20:35:28 145.825 FM, Beacon 2401.500 USB
OPAL 22 May 20:39:34 20:40:48 11° 50° (NE) 20:42:01 ?
JAS-2 22 May 20:44:54 20:51:35 33° 60° (ENE) 20:58:15 435.800 - 435.900 CW/SSB, 435.910 FM
UOSAT-12 22 May 20:53:30 20:58:05 67° 237° (WSW) 21:02:38 437.025 FM, 437.400 FM
SO-67 22 May 20:56:42 20:59:29 21° 266° (W) 21:02:18 435.3500 MHz FM

Developed and maintained by Chris Peat, Heavens-Above GmbH. Please read the updated FAQ before sending e-mail. Imprint. DLR
